Wind_Speed
13 13 13 13 13 14 14 14 14 13 12 12 11 10 9 9 8 8 8 9 10 8 7 10 12 14 15 15 15 15 14 14 14 12 13 13 12 12 12 12 13 13 12 13 12 11 12 13 12 11 11 12 13 13 14 14 15 16 15 14 13 13 15 13 8 7 8 8 8 9 13 18 18 19 22 17 11 10 8 6 9 11 8 10 12 10 9
12 13 13 14 14 15 14 14 14 13 12 11 10 9 9 8 8 7 8 10 9 6 9 12 12 14 16 15 14 15 15 14 14 13 12 12 11 12 13 12 12 12 12 13 13 11 10 12 12 10 10 12 13 13 13 13 15 16 15 15 14 12 14 13 9 7 5 5 6 6 11 14 14 19 21 15 11 10 8 6 7 7 7 12 13 10 11
13 14 15 15 15 15 14 14 13 12 12 11 10 9 8 7 7 7 9 11 8 8 12 12 12 14 15 15 15 14 14 14 13 12 12 12 12 12 12 12 11 12 11 12 13 12 10 10 10 10 10 11 12 12 13 13 14 15 15 15 13 12 15 13 9 6 6 6 5 7 14 14 12 17 18 13 11 11 9 8 6 7 13 18 15 12 17
14 15 16 16 16 15 14 13 12 12 11 10 9 8 7 6 7 7 10 11 9 10 14 13 12 13 13 15 15 13 13 14 12 12 12 12 12 12 12 11 11 11 11 12 13 13 12 10 10 10 10 10 11 12 12 12 12 14 15 15 14 13 14 14 9 5 6 8 8 12 16 13 12 15 14 11 12 11 10 8 7 12 17 16 13 15 24
15 16 17 17 16 16 15 14 13 12 11 10 9 9 7 6 8 7 8 9 10 12 15 13 13 12 12 14 15 13 12 12 12 12 12 12 11 12 12 11 11 11 11 11 12 11 11 11 10 10 10 9 9 10 11 12 12 13 14 15 15 12 10 13 11 6 6 11 13 15 17 15 14 14 11 10 11 10 9 9 12 16 14 14 17 23 27
16 18 18 18 18 17 16 15 14 13 11 10 10 9 7 7 8 8 8 9 10 12 14 13 13 11 11 14 15 13 12 12 12 12 12 12 12 11 12 11 11 11 10 10 10 10 10 9 9 9 9 8 8 8 9 11 12 13 13 15 15 12 10 13 14 9 8 14 17 18 19 19 15 10 8 10 11 9 9 14 19 20 16 19 26 29 29
17 18 19 19 19 18 17 16 14 13 11 11 10 9 8 8 9 9 10 10 11 12 13 13 12 11 11 14 15 14 13 13 12 12 12 12 12 11 11 11 10 11 10 9 9 9 8 8 8 8 8 8 8 8 8 10 12 13 13 14 14 12 11 14 16 11 9 15 20 20 21 20 14 8 8 11 11 9 13 19 24 25 25 26 29 31 31
16 18 19 21 20 20 18 16 15 13 12 12 11 9 9 9 9 10 10 10 12 13 13 13 12 11 12 14 15 14 13 13 12 12 12 12 11 10 10 10 9 9 9 8 8 8 8 7 7 7 7 7 8 8 8 9 11 12 13 13 13 13 12 14 17 13 9 14 22 22 20 18 11 6 10 13 11 11 16 22 26 29 30 29 30 31 27
16 18 20 22 22 21 19 17 15 13 12 12 10 9 9 9 9 10 9 10 13 14 13 12 12 12 13 13 14 14 13 13 12 12 12 11 10 10 9 9 9 8 8 7 7 8 7 6 6 5 5 6 7 8 7 8 9 11 13 13 13 15 14 15 17 13 8 15 23 22 19 15 7 6 12 14 12 13 18 24 29 30 30 31 31 28 22
16 18 20 22 22 22 20 18 16 14 13 12 10 9 10 9 9 10 8 9 13 14 13 12 12 13 13 13 14 14 13 13 12 11 11 10 9 9 8 8 8 7 7 5 5 6 6 6 5 4 4 4 6 7 7 8 9 11 13 13 14 16 15 16 16 11 8 14 20 19 17 10 4 7 14 15 15 17 22 28 29 28 26 28 28 25 25
17 18 20 22 23 22 20 18 16 14 13 12 10 9 10 9 9 10 8 8 12 14 12 12 12 13 14 13 13 14 13 12 12 11 10 9 8 8 7 6 7 6 5 5 4 4 4 4 5 5 4 4 5 7 8 8 9 11 14 14 15 16 16 16 16 12 11 16 18 14 9 5 7 12 14 14 17 21 27 31 31 28 26 25 25 27 31
17 18 20 22 23 22 20 17 15 14 13 11 10 10 10 9 9 11 8 7 12 14 12 12 13 13 14 14 13 13 12 11 11 10 9 8 7 7 6 5 5 5 5 4 4 3 3 3 4 5 6 5 5 6 8 9 9 11 14 15 15 17 16 15 16 15 14 17 17 8 4 8 14 14 12 15 20 26 32 34 32 31 28 25 26 31 37
17 18 20 22 23 22 20 17 15 14 13 10 9 10 10 9 9 11 9 7 12 14 12 13 14 13 14 14 12 12 12 10 10 9 7 6 6 5 5 4 4 4 4 4 4 4 4 4 4 5 6 7 6 6 7 10 10 11 14 15 15 16 16 15 16 15 14 14 11 6 9 15 15 11 14 20 25 30 35 36 34 31 27 25 29 36 40
17 19 21 23 23 22 20 18 16 15 13 10 9 10 10 10 9 10 9 7 10 14 13 13 15 14 13 13 12 11 10 9 8 7 6 5 4 4 3 3 3 3 3 3 4 5 5 5 6 7 7 8 8 7 8 10 11 11 12 15 15 15 15 14 13 13 13 12 11 11 13 14 12 12 17 23 28 31 32 35 36 30 25 28 35 39 40
17 19 21 23 23 22 20 18 16 15 12 9 9 10 10 11 9 8 10 9 8 13 15 13 14 14 12 12 11 9 9 8 6 6 4 4 3 3 2 2 3 3 3 3 4 6 6 6 7 7 7 7 8 7 8 11 12 11 11 14 14 14 14 13 11 13 14 12 11 11 8 7 10 15 20 25 30 30 30 36 35 28 27 34 38 39 40
17 19 22 23 22 21 20 18 17 15 11 8 9 11 11 11 8 7 11 10 7 12 15 13 13 13 11 11 9 8 7 6 5 4 3 2 2 2 1 2 2 3 4 5 5 6 7 7 8 7 6 7 8 8 9 11 12 12 13 15 15 14 15 14 12 13 15 11 8 8 6 7 12 18 23 28 30 31 32 31 26 25 32 38 39 38 40
17 19 22 22 22 21 20 19 17 14 11 8 9 11 11 10 8 7 11 11 8 11 14 13 12 12 10 9 8 6 5 4 3 2 1 1 1 2 2 3 4 4 5 6 7 7 8 8 9 8 8 9 10 10 9 10 12 13 13 16 17 15 15 14 11 12 15 13 10 9 9 12 17 21 27 30 31 32 27 17 16 28 38 39 38 39 40
17 20 22 22 22 21 21 19 17 14 11 8 10 12 10 10 8 6 11 12 9 10 12 12 11 10 9 7 6 5 4 3 2 1 0 1 2 3 4 4 5 6 6 7 8 9 9 10 10 10 10 10 10 10 10 11 13 13 13 16 17 16 16 15 13 14 14 11 11 13 14 15 18 24 29 31 31 28 19 15 24 36 38 37 38 39 39
17 20 21 22 22 21 21 19 17 15 11 8 10 12 10 9 8 6 9 12 10 9 10 11 9 8 7 5 5 4 2 1 0 1 2 2 3 4 5 6 6 7 8 8 9 10 11 11 11 11 11 11 11 11 12 13 14 14 14 15 15 15 16 15 14 15 14 13 15 15 13 14 21 29 31 30 27 23 21 25 33 36 35 37 38 38 39
18 20 21 21 21 20 20 18 16 14 11 7 9 12 10 8 8 6 7 10 9 7 7 8 8 6 5 4 3 2 1 1 2 2 3 4 5 6 6 7 8 9 9 9 10 11 11 12 12 11 11 12 13 13 14 15 15 14 14 15 15 14 14 12 12 15 14 12 12 10 11 19 28 31 30 30 28 28 29 32 33 33 35 37 37 37 40
17 19 20 20 20 20 20 18 16 14 11 8 10 13 11 8 8 6 5 8 9 5 4 5 5 4 3 2 1 1 1 2 3 4 5 6 7 7 8 8 9 10 10 10 11 11 12 13 13 12 12 13 14 14 15 16 16 14 14 15 15 14 14 12 14 16 12 9 9 11 17 27 30 27 27 29 30 31 32 33 33 33 35 36 37 38 40
17 19 19 20 20 21 20 19 17 15 13 11 12 13 10 7 8 6 3 6 7 5 2 2 2 1 1 1 2 2 3 4 5 6 6 7 8 9 9 10 10 11 11 11 13 13 13 15 14 14 15 15 15 16 16 16 16 15 15 15 15 15 17 17 18 19 16 15 17 19 23 27 29 28 28 28 29 31 31 31 33 34 34 35 37 38 39
16 18 19 20 21 22 22 21 20 17 15 14 14 11 8 7 7 5 3 5 6 4 1 1 1 1 2 3 3 4 6 6 7 8 9 9 10 11 11 11 12 13 13 13 14 15 15 16 15 16 16 16 16 18 18 17 18 18 17 18 18 17 19 20 21 22 23 22 23 24 25 27 28 30 30 28 29 30 31 31 32 33 34 36 37 38 40
16 17 19 20 22 23 23 24 23 21 19 17 14 12 9 8 7 5 5 6 6 3 2 3 3 3 4 5 6 7 8 8 9 10 11 11 12 12 13 13 14 14 14 15 16 16 16 17 17 17 18 17 17 18 18 19 20 19 19 20 21 19 20 22 23 24 26 26 25 26 28 29 28 29 30 30 30 30 30 31 32 32 34 36 37 39 40
15 17 19 20 23 24 25 26 26 26 23 20 17 15 13 12 10 8 7 6 5 4 5 5 5 6 6 7 8 9 9 10 11 12 12 13 14 14 14 15 15 16 16 16 17 17 18 18 19 19 19 19 19 19 19 20 21 21 21 22 22 20 22 24 25 26 28 28 27 27 28 29 29 30 30 30 31 32 32 32 32 33 34 36 37 39 40
14 16 18 20 22 24 25 27 27 28 27 26 23 21 18 15 13 10 9 8 7 6 7 7 7 8 8 9 10 10 11 12 13 13 14 14 15 16 16 16 17 17 18 18 18 19 19 20 20 20 20 21 21 22 22 21 22 23 23 22 21 21 23 24 26 29 30 30 29 30 31 31 32 33 32 31 31 33 33 33 33 34 35 36 38 39 40
13 15 17 19 22 24 25 26 27 27 28 28 28 26 23 20 17 14 13 12 10 8 9 9 9 10 10 11 11 13 14 14 15 15 16 16 17 17 18 18 18 18 19 19 20 21 21 21 22 22 22 22 23 24 24 23 24 25 23 20 19 21 24 25 27 30 31 29 29 31 31 31 32 33 34 33 32 32 33 33 34 34 35 36 38 39 40
11 13 16 18 20 22 24 25 26 26 27 28 28 27 26 24 22 20 18 16 14 12 11 11 11 11 11 12 13 15 16 17 17 17 17 18 18 19 19 19 20 20 20 21 22 22 22 23 23 23 23 23 24 25 25 25 26 25 22 19 19 22 24 25 27 30 30 28 28 29 30 30 31 32 32 32 32 32 33 33 33 34 35 36 37 39 40
9 12 14 16 18 20 22 23 24 25 26 26 25 25 25 24 23 23 22 20 18 17 16 14 13 12 13 13 15 17 17 18 18 18 19 20 20 20 20 20 21 21 22 23 23 23 23 24 24 24 24 24 25 27 27 27 28 26 21 19 21 23 24 25 26 29 30 28 28 29 30 30 31 32 32 32 32 32 33 33 33 34 35 36 37 38 39
8 9 12 14 17 19 21 22 23 23 23 24 23 22 23 23 23 23 22 21 21 20 19 18 15 15 16 17 17 18 19 19 19 20 20 21 21 21 21 21 21 22 23 23 24 24 24 25 24 24 24 23 25 28 29 29 30 26 19 18 22 24 24 25 27 29 30 29 28 29 29 30 31 32 32 32 32 32 33 33 33 34 35 36 37 38 39
6 8 10 12 15 17 19 20 21 21 22 22 22 21 22 22 23 22 22 22 22 21 21 20 18 17 18 19 20 21 22 21 21 22 22 21 21 21 21 21 22 22 23 23 24 24 24 25 25 24 23 23 25 28 29 31 32 26 18 18 24 26 25 26 27 28 29 29 29 30 30 30 31 31 32 33 33 32 33 33 33 34 35 36 37 38 39
5 7 9 11 12 14 16 18 18 19 20 21 21 21 22 22 22 22 22 22 22 22 22 22 21 19 19 20 21 23 23 23 23 24 23 23 23 22 21 21 22 22 22 23 23 24 24 24 24 25 25 24 26 29 29 30 29 22 17 20 25 27 26 27 28 28 28 29 30 31 31 31 31 32 32 33 34 34 33 34 34 35 35 36 37 39 39
6 6 8 10 11 12 13 15 16 17 19 20 20 20 21 21 21 21 22 22 22 23 23 23 23 22 21 21 22 24 25 25 25 25 24 24 24 23 22 21 21 21 21 22 22 23 24 24 24 25 25 25 27 29 29 27 23 18 18 22 26 27 28 29 28 28 29 28 29 31 32 32 32 32 32 33 34 34 34 34 35 35 36 36 38 39 39
6 6 7 8 10 10 11 12 14 15 16 18 19 20 20 20 20 21 21 21 22 23 23 23 24 24 23 23 23 24 25 26 26 26 25 24 25 25 24 23 22 22 21 21 21 22 23 23 24 25 25 25 26 28 27 24 19 17 20 24 27 28 29 30 30 29 29 28 29 30 31 32 31 32 32 33 34 34 35 35 35 36 36 37 38 39 40
7 7 7 8 9 10 10 11 12 13 14 15 17 18 19 19 20 20 21 21 22 23 23 24 24 25 25 25 25 25 26 26 26 27 26 26 25 25 24 24 23 22 22 21 20 21 22 23 24 25 26 26 25 25 24 23 20 19 22 26 29 30 31 31 31 30 30 29 29 30 31 32 31 31 32 33 34 35 35 35 35 36 36 37 38 39 40
7 7 8 8 9 9 10 10 11 12 13 14 15 16 17 18 19 19 20 21 21 22 23 24 25 26 27 27 26 26 26 26 26 26 26 26 26 25 25 26 25 23 23 21 20 20 22 23 24 25 25 25 24 23 23 23 21 20 24 28 30 31 31 32 33 32 30 29 29 30 31 32 31 31 32 33 35 36 36 36 36 36 36 37 38 40 40
7 7 8 9 9 10 11 11 11 11 11 13 13 14 15 17 17 18 19 20 21 22 23 24 25 26 27 27 27 27 27 27 27 27 27 27 26 25 26 27 26 24 24 22 20 22 23 23 23 23 22 22 23 24 22 21 21 24 27 30 31 31 32 33 33 33 31 30 30 30 32 32 31 31 32 33 34 35 36 36 36 37 37 37 38 40 40
7 8 8 9 10 11 12 12 11 11 11 12 12 13 14 16 16 17 18 19 20 22 23 24 25 26 27 27 27 28 28 28 28 27 28 28 26 25 26 27 26 25 25 23 21 24 26 25 23 23 22 23 25 25 23 23 25 28 29 30 31 32 33 33 33 33 32 31 30 31 32 32 31 31 32 33 34 35 36 36 36 37 37 38 38 39 40
7 8 8 9 9 11 12 12 12 11 12 13 13 13 14 15 16 17 18 19 20 21 23 25 26 27 28 28 28 28 28 29 28 28 28 27 26 26 27 27 25 25 25 23 23 26 27 26 25 24 24 27 30 28 25 26 28 29 31 32 33 32 32 33 33 33 32 31 31 31 33 33 32 32 32 33 34 35 36 36 36 37 37 38 38 39 40
6 7 8 9 10 10 11 13 13 12 13 14 14 14 15 16 17 18 19 19 20 22 24 25 26 27 28 29 29 29 29 29 29 29 28 26 25 26 27 26 25 25 24 23 25 28 28 28 27 26 27 32 35 32 29 29 30 31 33 34 33 33 33 33 33 33 32 31 31 31 32 33 32 32 32 33 34 35 36 36 36 37 37 38 38 39 40
7 8 8 9 10 10 11 12 13 13 13 14 15 16 16 16 17 19 20 20 21 22 24 26 27 27 28 30 30 30 29 28 29 29 28 27 27 27 27 25 24 22 21 23 27 29 28 28 28 29 30 35 37 36 33 32 32 33 35 35 34 33 33 34 34 34 33 31 31 31 32 33 33 32 32 32 33 35 36 37 37 37 37 38 38 39 39
8 9 10 10 11 12 11 12 13 13 14 15 17 18 18 18 19 21 21 21 22 24 25 26 27 28 29 30 30 30 29 29 29 29 29 28 28 28 27 25 22 21 22 26 29 28 27 28 30 33 35 38 39 38 37 35 35 36 37 37 35 34 34 34 34 34 33 31 31 32 32 33 33 32 32 32 33 34 36 37 37 37 37 38 38 39 39
9 11 11 11 12 13 12 12 13 14 14 15 17 19 19 20 21 22 22 22 24 25 25 26 27 28 29 30 30 30 29 28 29 29 28 28 28 28 27 25 24 24 27 28 28 27 27 29 32 37 40 41 40 40 39 38 38 39 38 37 36 35 35 34 34 34 33 32 31 32 32 33 33 32 32 32 33 34 35 37 37 37 37 38 39 39 40
11 11 12 12 13 13 13 13 14 15 15 17 19 21 21 22 23 23 23 24 25 25 26 27 28 28 29 30 30 29 28 28 29 27 26 26 27 26 25 25 26 28 28 27 27 28 30 32 36 41 43 42 41 41 41 40 40 40 39 37 36 35 35 35 34 34 33 32 31 32 33 33 33 32 32 32 33 34 35 37 37 37 37 38 38 39 39
11 12 13 13 13 13 13 13 14 16 18 19 20 22 23 23 24 25 25 26 26 27 27 27 28 28 29 30 30 29 29 29 28 26 25 26 26 25 24 26 28 27 26 26 28 30 33 37 41 43 44 43 42 42 42 41 41 40 39 37 36 35 35 35 34 33 33 32 31 32 33 33 33 32 32 32 33 34 35 37 37 37 37 38 38 39 39
12 14 15 15 14 13 13 14 16 18 19 21 22 23 24 24 25 26 26 27 27 28 29 29 29 29 29 29 29 29 28 28 27 26 25 25 26 26 26 27 26 23 23 26 29 33 37 41 43 43 43 43 43 43 42 42 42 41 40 38 36 36 35 34 33 33 33 31 31 31 32 33 33 32 32 32 33 34 35 37 38 37 38 38 39 39 39
14 15 16 16 15 14 15 16 18 19 21 22 23 24 25 25 26 27 27 28 28 29 29 30 30 30 30 29 29 28 27 27 27 25 24 25 26 27 26 24 23 22 23 28 33 37 41 42 43 43 43 43 43 43 43 43 42 42 40 39 37 36 35 34 33 33 32 31 30 31 32 33 33 32 32 32 33 34 36 37 38 38 38 38 39 39 39
15 15 16 16 16 16 17 19 20 21 22 23 24 25 26 26 27 28 28 29 29 30 30 31 31 31 31 30 29 28 27 26 25 25 25 25 25 25 24 24 25 26 27 31 37 41 42 42 43 43 43 43 43 43 43 43 42 42 41 39 38 37 35 34 33 32 32 31 30 31 32 33 33 32 32 32 32 33 35 37 38 38 38 39 39 39 39
15 15 15 16 17 18 19 21 22 22 22 24 26 27 27 27 28 29 30 30 30 30 31 31 32 32 32 31 30 29 27 24 24 26 27 25 23 23 23 26 29 31 33 36 40 42 41 41 43 43 43 42 43 43 43 43 43 42 41 40 39 37 35 33 33 32 32 31 30 31 32 33 33 32 32 31 32 33 35 37 38 38 38 38 39 39 39
15 15 15 16 18 19 20 22 23 24 24 25 27 28 28 29 29 29 30 31 31 31 32 32 32 32 32 32 31 29 26 24 26 28 28 25 23 24 26 29 33 35 37 38 40 40 41 41 42 42 42 42 42 42 42 43 42 41 41 40 39 37 35 33 33 32 31 31 30 30 32 32 33 32 32 31 31 32 34 36 38 38 37 38 39 39 39
16 17 16 17 19 21 22 23 24 25 26 27 28 29 30 30 30 30 31 31 32 33 33 33 32 32 33 33 31 29 28 27 28 29 28 25 24 26 31 34 36 37 38 39 39 39 40 41 41 42 42 42 42 41 42 42 42 41 41 40 38 37 34 33 33 32 31 30 30 30 31 32 32 32 31 31 31 32 33 35 37 38 37 38 38 39 39
18 19 19 19 20 22 23 24 25 27 28 28 29 30 31 31 31 32 32 32 32 33 33 33 33 32 32 32 33 32 31 29 28 28 28 28 28 30 35 37 38 38 39 40 40 40 40 40 40 41 42 42 41 41 42 42 41 41 41 40 38 36 34 33 33 32 31 30 30 30 31 32 32 32 31 31 31 32 33 34 36 37 37 37 38 39 39
Wind_Direction
359 356 356 357 357 359 0 359 1 2 2 4 5 8 11 9 18 32 30 34 36 26 40 65 68 75 81 81 83 83 80 79 76 72 69 63 55 52 48 46 45 46 43 42 50 55 50 52 57 60 62 55 46 42 40 42 40 37 36 26 21 23 16 359 324 312 317 328 346 350 352 353 347 346 356 4 10 6 349 316 316 316 313 326 324 309 311
2 2 4 5 5 7 7 6 7 6 9 12 11 15 16 15 27 40 42 44 44 41 62 75 75 78 83 83 85 84 80 79 75 70 69 60 53 52 50 48 49 48 50 53 57 61 60 59 62 66 65 55 48 45 44 44 41 38 32 25 25 25 18 4 341 333 325 320 339 346 347 349 338 336 348 359 5 1 357 335 308 303 340 341 316 297 318
10 10 11 10 9 9 8 8 9 8 12 14 15 20 21 22 37 52 56 53 53 65 72 75 77 82 88 86 83 84 83 81 75 68 67 61 56 57 55 54 55 55 60 61 61 66 70 68 69 70 66 58 52 45 44 43 39 36 31 25 25 25 25 19 360 351 352 346 340 321 327 332 322 326 340 354 1 6 11 357 320 315 334 327 307 300 316
16 16 16 15 14 14 13 14 14 14 17 17 22 30 30 36 52 65 71 64 58 70 77 77 78 82 89 88 85 84 82 81 76 69 67 64 61 64 64 62 63 65 66 68 67 67 70 74 75 71 67 61 53 45 41 39 35 33 27 21 22 23 20 17 7 352 344 341 328 317 324 326 313 321 337 354 358 3 13 9 339 331 326 314 312 317 312
24 24 24 23 21 21 20 21 22 23 25 26 33 39 37 49 62 68 80 75 65 73 80 79 79 82 86 89 89 86 83 81 78 72 71 71 70 71 71 68 68 70 70 72 74 71 71 74 72 70 68 58 53 46 39 36 33 29 22 18 20 20 9 4 2 354 343 345 338 331 333 329 321 327 341 352 351 354 8 3 344 341 326 302 315 320 311
34 32 30 27 25 24 24 24 25 27 29 35 40 41 40 57 68 68 77 83 79 81 84 81 81 83 86 89 91 89 85 83 81 79 77 77 77 75 75 71 69 71 71 72 76 76 75 73 68 67 63 51 46 40 32 32 29 23 19 14 13 15 8 360 358 350 344 349 345 338 336 332 331 339 345 343 344 345 352 349 343 340 326 311 319 320 314
41 37 33 30 27 26 25 25 27 27 31 39 43 43 46 59 72 73 76 85 88 87 87 85 84 84 87 91 93 91 89 87 86 86 84 81 79 77 76 75 71 71 71 69 73 76 75 72 67 63 58 48 39 32 28 27 22 17 14 9 8 9 2 355 353 344 336 347 346 340 336 333 332 345 345 336 336 333 337 343 342 334 326 323 322 320 318
43 38 33 31 28 28 27 27 29 29 33 41 42 45 54 61 73 78 78 86 91 88 85 87 90 90 90 93 96 96 94 91 90 90 88 84 82 80 78 77 76 75 76 74 73 74 73 70 66 58 53 44 33 30 27 22 19 14 7 5 7 6 357 352 353 344 324 339 345 341 335 330 323 334 340 332 328 326 330 335 335 330 328 327 323 321 321
41 35 31 29 27 26 27 28 30 32 36 43 43 47 59 64 72 81 81 85 91 90 87 90 95 96 95 96 100 101 98 97 95 92 90 86 84 83 80 78 79 77 77 78 73 70 66 60 56 50 42 35 29 26 20 15 15 9 4 4 4 2 358 354 356 352 327 334 341 337 330 322 302 311 332 327 321 321 322 326 329 330 329 326 323 322 319
38 33 29 27 24 24 25 27 30 34 38 45 46 49 60 65 71 81 81 82 90 93 94 99 101 100 99 100 103 104 103 103 101 95 91 90 87 84 79 77 78 75 74 73 66 63 58 48 42 33 17 14 18 17 10 6 6 3 3 3 360 360 0 357 357 352 326 336 341 329 318 314 293 315 325 321 316 317 318 322 328 330 326 321 318 318 315
35 32 28 25 23 22 23 25 30 35 39 46 47 52 62 65 71 79 77 83 94 97 101 106 106 105 105 106 106 106 106 106 104 99 96 94 89 85 83 78 75 72 70 63 51 47 44 35 29 18 360 343 353 7 3 355 358 0 360 359 358 357 357 355 356 344 324 340 347 326 300 314 326 318 318 316 316 319 321 324 329 332 329 323 319 319 321
35 31 26 23 20 20 22 24 29 35 40 46 49 55 64 66 72 78 75 84 100 104 108 111 110 110 111 111 110 109 109 108 106 101 99 97 93 87 84 79 76 71 60 46 32 21 15 11 9 5 356 338 328 343 352 349 350 354 355 355 354 353 352 352 353 345 332 341 349 336 291 322 317 307 311 319 321 325 326 327 331 334 333 327 323 324 326
34 30 25 21 19 19 21 23 29 36 39 45 53 58 63 66 73 79 77 84 103 109 115 117 115 116 116 114 114 113 112 109 106 101 98 96 95 90 82 73 68 62 48 33 19 2 351 353 353 346 345 342 326 316 334 346 345 344 350 352 349 348 353 352 347 344 338 337 340 322 307 315 309 301 318 327 328 331 329 327 331 334 330 325 326 328 328
34 30 24 20 18 17 19 22 28 36 37 44 59 63 66 69 73 84 87 88 105 116 121 123 122 121 120 118 118 116 114 110 108 105 101 97 93 86 78 65 47 35 19 5 2 356 348 344 344 338 335 340 334 318 321 336 338 336 341 346 345 345 350 351 343 342 342 331 313 297 296 302 306 314 323 327 328 330 326 322 326 331 330 328 329 328 326
34 30 23 19 17 17 20 23 28 34 34 42 67 73 72 69 70 90 97 91 109 124 126 128 127 125 124 123 121 120 118 114 112 109 103 97 89 74 61 40 24 12 355 344 342 348 349 342 337 334 328 328 327 318 317 326 330 330 332 338 342 342 345 348 341 338 343 332 311 306 299 292 309 318 321 324 327 328 324 319 322 330 332 329 328 326 325
33 29 21 18 17 17 21 24 29 35 35 44 71 76 73 71 72 98 106 101 118 130 129 132 132 128 127 126 124 125 124 119 120 115 98 85 71 45 22 357 349 345 346 345 337 338 343 339 330 320 311 317 322 317 317 322 322 324 329 334 340 341 342 345 339 334 340 335 310 306 302 292 308 317 322 325 326 326 325 320 319 326 328 325 325 325 325
32 27 19 17 17 18 22 26 29 37 40 49 74 77 74 76 80 104 115 113 127 137 133 135 135 130 129 129 127 128 128 125 130 124 99 72 9 349 335 331 330 330 337 341 336 332 330 330 328 317 303 312 322 317 316 319 318 320 326 331 336 340 340 340 335 327 329 328 311 300 291 288 301 317 324 325 325 326 325 318 311 319 323 323 324 325 324
32 25 18 17 18 19 22 26 30 39 45 54 74 77 76 80 83 111 126 122 132 146 140 138 137 132 132 136 136 135 136 137 142 141 331 321 322 319 318 322 324 326 331 332 330 330 325 321 323 316 301 306 317 316 312 314 316 318 322 326 331 336 336 336 334 328 323 315 306 303 295 290 305 320 324 323 324 324 318 306 311 317 320 321 322 323 323
32 24 18 18 21 21 23 26 30 40 46 55 74 78 79 85 91 119 135 127 132 150 145 138 137 135 136 144 147 145 150 163 196 307 315 317 315 311 313 319 320 321 324 324 323 324 321 316 315 312 302 301 309 313 312 313 317 318 320 324 327 329 331 331 328 328 324 310 305 304 296 303 320 324 321 320 320 316 309 309 314 317 318 319 321 322 322
33 25 20 22 24 24 27 30 33 41 49 58 80 82 79 88 99 117 138 131 131 146 147 138 134 135 142 153 158 165 192 253 295 305 309 314 316 315 315 319 319 318 318 319 320 318 315 313 312 308 303 301 305 311 313 315 318 317 315 320 322 322 324 320 315 322 323 309 306 308 303 315 322 321 317 317 316 312 313 316 317 317 317 320 322 323 323
34 26 23 26 28 29 32 35 38 47 55 63 77 78 73 82 96 102 130 134 127 130 143 137 132 141 159 170 185 243 288 307 312 311 311 312 315 315 315 316 318 317 313 314 315 312 310 311 308 303 304 304 303 308 312 312 314 315 314 317 319 320 322 315 310 318 318 293 295 307 307 313 319 318 316 315 313 313 316 317 317 318 319 320 322 323 324
35 29 28 31 34 35 38 41 44 49 54 57 65 68 65 69 82 91 127 127 107 95 108 126 129 158 214 272 288 300 311 317 319 320 318 316 317 316 314 315 316 315 312 311 311 308 306 307 304 300 302 303 300 304 309 307 305 309 312 314 315 318 322 317 310 312 311 303 307 313 313 316 320 321 320 318 314 315 317 316 316 318 319 320 322 324 324
38 34 35 37 39 41 43 47 50 52 54 56 61 66 68 71 81 96 116 95 78 68 57 47 20 346 336 331 325 324 323 322 321 321 320 319 319 317 314 313 315 315 313 310 309 306 303 303 301 298 299 301 299 301 306 305 303 306 309 309 311 316 320 319 316 314 313 316 320 322 322 323 323 322 323 323 320 318 318 318 318 318 319 321 323 324 325
43 40 41 43 45 46 47 50 53 54 55 57 60 63 66 66 67 67 66 64 59 41 19 17 3 350 345 341 338 334 329 327 326 324 324 323 321 318 315 314 314 313 312 310 308 306 303 301 300 297 297 299 298 298 301 302 304 307 307 307 311 314 316 320 322 317 314 320 326 325 324 326 326 324 324 325 323 321 320 320 320 320 320 322 324 325 326
48 45 46 48 49 51 51 53 55 55 55 57 58 57 56 54 52 50 49 49 43 23 13 8 357 351 347 342 340 336 332 331 329 328 327 324 320 318 316 314 313 313 312 310 308 306 304 302 299 297 297 298 296 296 297 299 301 304 305 305 309 310 311 319 324 319 316 322 326 324 324 327 327 326 327 326 325 324 324 323 323 322 322 323 324 326 327
52 48 49 51 52 53 53 54 56 57 56 56 56 55 53 50 48 45 38 34 27 13 5 1 353 348 344 339 338 336 334 333 331 328 327 323 320 320 317 315 314 312 311 310 308 305 304 302 299 297 296 296 297 296 296 298 299 301 304 307 307 305 307 315 320 320 321 325 326 325 327 329 329 329 330 329 327 326 325 324 324 323 323 324 325 326 327
54 51 51 52 53 54 54 54 55 56 57 56 55 54 53 51 48 45 39 35 29 14 5 1 353 347 342 338 336 335 334 333 329 327 325 323 320 318 317 315 314 312 310 309 307 306 304 302 300 299 296 296 297 296 296 297 297 299 305 311 307 303 306 312 316 318 323 326 323 322 325 327 327 328 329 329 328 326 325 324 324 324 325 326 326 326 327
57 52 51 52 53 54 54 54 53 54 55 55 54 53 53 51 50 48 45 41 35 27 20 13 5 358 353 346 340 337 335 333 330 328 326 324 321 319 317 316 314 312 311 308 307 307 305 302 301 301 299 298 297 295 296 297 294 298 308 313 307 305 308 310 312 315 320 322 320 319 322 324 325 326 327 327 327 326 324 324 324 325 325 326 326 326 327
59 53 51 51 52 53 53 53 51 51 52 52 52 51 51 50 49 48 47 44 40 38 34 28 23 17 11 3 355 350 345 340 335 331 327 324 322 320 318 317 315 314 312 309 307 307 305 303 303 301 300 300 296 294 296 296 295 301 312 310 307 311 313 311 311 314 318 319 319 319 322 324 324 325 327 328 327 326 325 325 325 326 326 326 326 327 327
61 54 50 50 51 51 52 51 50 49 50 50 50 49 48 47 46 44 43 41 39 38 36 34 31 27 22 16 9 4 359 353 347 342 336 331 328 324 321 319 317 316 314 312 309 308 306 306 306 303 301 299 294 293 296 296 298 307 314 308 309 317 317 314 315 316 317 319 319 320 323 324 324 325 327 328 328 327 326 326 327 326 326 326 327 327 328
62 53 49 48 49 49 49 49 48 46 47 47 47 45 44 43 41 39 38 36 34 33 33 30 28 25 21 16 11 8 5 1 358 353 347 342 339 335 329 326 322 319 317 315 312 310 309 309 309 306 304 300 294 294 296 296 300 309 314 309 315 322 321 317 318 317 317 318 319 321 324 325 325 326 328 329 330 329 327 327 327 327 327 327 327 328 329
62 53 47 47 47 46 46 46 45 43 43 43 42 41 40 39 36 34 34 31 29 28 28 25 23 21 16 10 7 6 4 1 360 358 354 349 347 344 339 335 330 327 324 321 317 315 315 315 312 309 306 303 299 297 298 299 303 309 311 313 319 324 323 321 321 319 318 319 319 321 325 326 326 328 330 330 331 331 329 328 328 328 329 328 328 328 329
57 50 45 44 44 43 43 43 41 40 40 39 38 37 36 34 32 31 30 28 25 24 24 21 20 18 13 7 5 3 1 359 358 358 356 352 349 348 347 343 339 335 333 328 324 322 321 320 316 312 310 308 303 300 302 306 309 307 307 314 321 324 324 324 323 320 319 319 318 320 324 325 326 328 330 331 331 331 330 330 329 329 330 329 329 329 330
51 47 43 42 41 40 40 38 36 36 35 35 34 33 31 30 28 27 26 25 23 22 20 18 15 14 10 7 5 2 359 357 356 355 354 352 349 348 348 347 344 341 338 335 331 328 326 323 320 317 316 315 310 306 308 313 311 304 307 317 321 323 324 326 324 321 320 318 318 320 322 324 326 327 329 330 331 331 331 330 329 329 330 330 330 330 330
48 45 42 41 39 37 35 33 31 29 28 28 29 28 26 25 24 23 22 21 19 19 18 14 11 9 7 5 4 1 357 356 355 352 351 351 349 347 347 347 346 342 340 339 336 332 330 327 324 323 323 321 317 313 312 311 307 306 312 318 320 322 324 326 325 323 320 318 318 319 322 324 325 327 328 330 332 332 332 331 330 330 330 330 330 330 330
48 44 41 39 36 33 31 28 25 22 21 21 21 21 20 20 19 18 18 17 16 15 14 11 9 7 4 2 1 359 356 355 354 352 349 349 348 347 345 346 345 343 342 341 338 335 334 331 327 328 329 326 321 317 312 308 308 312 316 318 320 321 323 324 325 323 320 318 318 319 321 324 325 326 328 331 332 332 332 332 331 331 331 331 331 331 331
48 45 40 37 34 31 27 23 19 16 14 13 13 12 13 14 13 13 13 13 12 11 10 8 6 4 2 0 357 355 355 354 353 352 350 348 347 346 345 345 343 341 342 342 338 335 336 333 330 332 334 330 326 324 318 312 312 317 319 320 321 320 321 323 324 323 320 318 318 319 321 324 325 326 328 330 332 333 333 332 332 331 331 331 331 331 331
47 42 39 36 32 29 25 20 16 13 10 7 6 6 6 6 7 7 7 7 7 7 6 4 2 0 360 358 356 353 353 353 352 351 349 347 346 346 345 343 340 338 339 340 338 335 335 333 331 332 336 336 335 333 325 317 317 319 322 322 321 319 320 322 324 323 320 318 318 319 321 324 325 326 328 330 331 332 333 332 332 332 331 331 332 332 331
42 37 35 32 28 25 23 19 15 12 9 5 3 3 2 2 2 2 2 1 1 1 0 359 358 356 356 356 355 352 350 349 349 350 349 347 345 344 343 340 337 335 335 336 335 334 333 331 330 331 335 340 341 338 329 322 320 321 322 322 321 319 319 322 324 323 320 318 318 319 322 324 325 326 327 330 332 333 333 333 333 332 331 331 331 332 332
28 26 25 23 21 19 16 14 12 10 8 6 4 2 0 360 358 357 357 356 356 356 355 354 354 353 352 352 352 351 349 348 347 347 347 345 343 342 341 338 335 333 332 333 333 333 330 327 327 330 334 338 341 339 333 327 323 321 321 321 321 320 320 322 324 324 321 318 318 319 321 323 324 324 326 329 331 333 334 334 333 333 332 331 331 332 332
13 11 10 10 10 8 6 7 8 5 3 5 5 2 0 360 357 353 352 351 351 351 350 348 349 350 349 349 349 348 347 346 345 345 344 344 342 341 340 339 335 331 329 330 331 330 327 324 326 331 335 337 338 339 335 330 325 323 322 321 321 320 321 322 323 323 321 319 318 319 321 323 323 324 325 328 330 332 334 334 334 334 332 331 332 332 333
1 0 358 357 359 358 357 358 0 359 358 360 1 0 359 358 354 352 351 348 345 345 345 344 345 346 346 345 345 345 344 344 344 343 342 342 341 338 338 338 335 328 327 328 328 327 324 323 326 332 335 336 337 337 335 332 328 324 323 322 321 321 320 321 322 323 321 319 318 319 321 322 323 323 324 327 330 332 334 334 334 335 333 332 332 333 334
349 350 349 347 348 349 349 350 352 353 353 352 353 354 354 353 351 350 349 346 342 341 341 341 341 342 342 341 341 342 341 341 341 341 340 339 338 336 335 335 332 327 327 327 326 325 324 324 327 332 335 335 335 334 333 331 329 326 324 322 321 320 320 320 322 322 321 319 318 319 321 322 323 323 324 326 329 332 334 334 335 335 334 332 332 333 334
340 341 341 340 340 341 342 344 346 347 346 345 345 345 345 345 346 346 345 344 342 341 340 339 338 339 339 338 338 339 338 338 338 338 336 336 336 333 330 329 328 327 326 326 325 325 326 329 331 332 333 334 333 332 331 330 329 326 324 322 320 319 319 320 321 321 320 318 318 318 320 322 323 323 323 325 328 332 333 334 335 336 335 333 333 333 334
335 335 335 335 337 337 337 339 341 342 341 340 339 338 337 337 338 339 340 340 340 340 339 338 336 336 336 335 335 335 335 335 335 335 333 332 332 330 327 326 326 325 324 323 324 325 328 331 332 332 331 331 331 329 329 329 328 327 326 323 320 318 318 319 320 321 320 318 317 319 320 322 323 323 324 325 327 331 333 334 335 336 335 334 333 334 334
327 327 328 330 332 333 332 334 336 336 335 334 333 333 332 331 331 332 333 335 337 338 338 337 335 334 334 333 332 332 332 331 330 331 331 330 329 328 327 326 325 323 320 321 323 326 330 331 331 329 329 329 329 328 329 329 328 328 327 324 321 319 318 318 319 320 319 318 317 318 320 322 323 324 324 325 327 330 333 334 336 337 336 334 334 334 334
320 321 322 324 325 325 327 329 329 330 330 328 328 328 329 329 327 327 328 329 332 333 334 334 334 333 332 330 329 329 329 328 327 328 330 328 326 326 326 323 322 321 319 320 324 328 330 330 329 328 328 328 327 327 328 329 328 328 327 325 321 319 318 318 319 319 319 317 317 318 320 322 323 324 324 325 327 329 332 334 336 337 336 335 335 334 334
317 319 321 321 320 321 324 324 323 325 326 325 323 324 325 326 325 325 325 325 326 327 329 331 331 331 330 329 327 327 327 326 324 326 328 327 325 324 323 320 320 322 323 323 325 328 330 329 327 327 327 327 327 327 328 328 328 328 327 325 322 320 318 318 318 319 318 317 317 318 320 322 323 323 324 325 326 328 331 333 335 337 336 335 335 335 335
318 320 322 321 319 321 322 321 321 323 324 322 320 321 321 322 323 323 323 322 322 323 325 327 328 328 328 328 326 325 325 324 321 323 325 324 321 319 317 316 319 324 326 325 326 328 329 328 327 326 326 326 326 326 327 327 327 328 327 325 324 322 319 317 318 319 318 317 317 318 320 322 323 323 324 325 326 328 330 332 335 336 336 335 335 336 335
318 320 322 321 320 321 321 320 320 323 323 320 319 319 318 318 319 320 320 320 320 320 321 323 324 325 326 326 324 323 323 321 319 319 320 321 319 316 315 317 322 325 325 325 326 328 329 329 328 326 326 325 325 326 326 327 327 327 326 325 324 322 319 317 318 319 318 317 316 318 320 322 323 323 323 324 326 328 330 332 334 336 336 335 336 336 336
315 317 320 321 320 319 319 319 320 321 321 319 318 318 317 316 316 316 317 318 318 318 319 320 321 322 323 323 321 319 318 316 315 316 318 319 317 315 316 321 324 325 323 324 327 328 329 329 329 327 326 325 326 326 326 327 327 327 326 325 325 323 320 318 318 318 318 316 316 318 320 322 323 323 323 324 325 328 330 332 334 335 335 335 335 336 336
312 313 315 317 317 317 316 317 318 318 318 318 318 317 316 315 314 314 314 315 316 317 317 317 317 318 319 318 317 316 315 312 311 313 318 319 317 316 319 323 325 324 323 325 328 330 331 331 330 327 325 325 326 326 327 327 328 327 326 325 325 323 320 318 318 318 317 316 316 318 320 322 323 323 323 324 325 327 330 332 333 335 335 335 335 336 337
Height
3150 3148 3147 3145 3143 3142 3140 3138 3136 3135 3134 3132 3131 3130 3129 3128 3128 3127 3126 3125 3124 3123 3123 3123 3123 3122 3123 3123 3124 3125 3125 3125 3125 3126 3126 3125 3125 3125 3124 3124 3123 3123 3122 3121 3120 3120 3120 3119 3118 3118 3117 3117 3116 3115 3114 3112 3111 3109 3108 3107 3106 3105 3103 3102 3101 3099 3097 3096 3095 3094 3093 3092 3091 3090 3089 3089 3088 3087 3087 3086 3084 3082 3080 3078 3077 3072 3067
3150 3148 3147 3145 3143 3141 3140 3138 3136 3135 3134 3132 3131 3130 3129 3129 3128 3127 3126 3125 3125 3124 3124 3124 3124 3123 3124 3125 3125 3126 3126 3126 3126 3126 3126 3126 3126 3125 3125 3124 3124 3123 3123 3122 3121 3120 3120 3119 3119 3118 3118 3117 3116 3115 3114 3113 3111 3110 3109 3108 3107 3105 3104 3103 3101 3098 3096 3095 3095 3094 3094 3093 3092 3090 3089 3088 3087 3087 3086 3085 3084 3082 3080 3080 3078 3072 3067
3150 3149 3147 3145 3143 3141 3140 3138 3137 3135 3134 3133 3132 3131 3130 3129 3128 3127 3127 3126 3126 3125 3124 3125 3125 3125 3125 3126 3126 3127 3127 3127 3127 3127 3127 3127 3126 3126 3125 3125 3124 3124 3123 3122 3121 3121 3120 3120 3119 3119 3118 3117 3117 3116 3115 3113 3112 3111 3110 3109 3107 3106 3105 3104 3103 3101 3099 3098 3097 3096 3095 3094 3093 3090 3089 3088 3086 3086 3085 3084 3083 3081 3080 3079 3077 3071 3068
3151 3149 3147 3145 3143 3142 3140 3138 3137 3135 3134 3133 3132 3131 3130 3129 3128 3128 3127 3127 3127 3126 3126 3126 3126 3126 3127 3127 3127 3128 3128 3128 3128 3128 3127 3127 3127 3126 3126 3125 3125 3124 3124 3123 3122 3121 3121 3120 3120 3119 3119 3118 3117 3116 3115 3114 3112 3111 3110 3109 3107 3106 3105 3105 3104 3103 3101 3101 3100 3097 3095 3094 3092 3090 3088 3087 3086 3085 3084 3084 3084 3082 3080 3077 3074 3072 3068
3151 3149 3148 3146 3144 3142 3140 3139 3137 3136 3134 3133 3132 3131 3131 3130 3129 3128 3128 3128 3128 3127 3127 3127 3127 3128 3128 3128 3128 3129 3129 3129 3129 3128 3128 3128 3127 3127 3126 3126 3125 3125 3124 3123 3123 3122 3122 3121 3120 3120 3119 3118 3117 3116 3115 3114 3113 3111 3110 3109 3107 3106 3105 3105 3103 3102 3101 3100 3098 3096 3094 3092 3091 3089 3087 3086 3085 3084 3083 3083 3083 3082 3079 3075 3072 3071 3066
3152 3150 3148 3147 3145 3143 3141 3139 3138 3136 3135 3134 3132 3132 3131 3130 3130 3129 3129 3129 3129 3128 3128 3129 3129 3129 3129 3129 3129 3129 3129 3129 3129 3129 3129 3128 3128 3127 3127 3127 3126 3125 3125 3124 3123 3123 3122 3122 3121 3120 3119 3118 3117 3116 3115 3114 3113 3111 3110 3109 3107 3106 3105 3104 3102 3101 3100 3098 3096 3094 3092 3090 3088 3087 3086 3085 3084 3083 3082 3081 3080 3079 3077 3073 3069 3067 3064
3153 3151 3150 3148 3146 3143 3142 3140 3138 3137 3135 3134 3133 3132 3132 3131 3130 3130 3130 3129 3130 3129 3129 3130 3130 3130 3130 3130 3130 3130 3130 3130 3130 3130 3129 3129 3129 3128 3128 3127 3127 3126 3125 3125 3124 3123 3123 3122 3121 3120 3119 3118 3117 3116 3115 3114 3113 3111 3110 3109 3107 3106 3104 3103 3101 3099 3098 3096 3094 3092 3089 3087 3086 3085 3085 3084 3083 3081 3080 3079 3077 3075 3073 3071 3067 3064 3060
3154 3152 3151 3148 3146 3144 3142 3140 3139 3137 3136 3135 3134 3133 3132 3132 3131 3131 3131 3130 3130 3130 3130 3130 3131 3131 3131 3130 3130 3131 3131 3131 3130 3130 3130 3130 3129 3129 3129 3128 3127 3127 3126 3125 3125 3124 3123 3122 3121 3120 3119 3118 3117 3116 3115 3114 3112 3111 3110 3109 3107 3105 3104 3102 3100 3097 3096 3094 3093 3090 3088 3086 3084 3084 3084 3083 3081 3080 3078 3077 3076 3073 3070 3067 3064 3061 3057
3155 3153 3151 3149 3147 3145 3143 3141 3139 3138 3137 3135 3135 3134 3133 3132 3132 3132 3132 3131 3131 3131 3131 3131 3132 3132 3132 3131 3131 3131 3131 3131 3131 3131 3131 3130 3130 3130 3129 3128 3128 3127 3126 3126 3125 3124 3123 3122 3121 3120 3119 3118 3117 3116 3115 3114 3112 3111 3110 3108 3107 3105 3103 3101 3099 3097 3095 3094 3091 3088 3086 3084 3084 3083 3082 3081 3080 3079 3077 3076 3074 3071 3067 3064 3061 3058 3056
3156 3154 3152 3150 3148 3146 3144 3142 3140 3139 3137 3136 3136 3135 3134 3133 3133 3132 3132 3132 3132 3132 3132 3132 3133 3132 3132 3132 3132 3132 3132 3132 3132 3132 3131 3131 3131 3130 3130 3129 3128 3127 3127 3126 3125 3124 3123 3122 3121 3120 3119 3118 3117 3116 3114 3113 3112 3110 3109 3107 3106 3104 3102 3100 3099 3097 3096 3094 3091 3087 3085 3083 3082 3082 3081 3080 3079 3078 3076 3074 3072 3069 3066 3062 3059 3057 3054
3157 3155 3153 3151 3149 3147 3144 3143 3141 3139 3138 3137 3136 3135 3135 3134 3134 3133 3133 3133 3133 3133 3133 3133 3133 3133 3133 3133 3133 3133 3133 3133 3133 3132 3132 3132 3131 3130 3130 3129 3128 3128 3127 3126 3125 3124 3123 3122 3121 3120 3119 3118 3116 3115 3114 3112 3111 3110 3108 3106 3105 3103 3102 3100 3098 3096 3095 3092 3089 3087 3084 3082 3081 3081 3080 3079 3077 3075 3073 3070 3068 3066 3064 3060 3057 3054 3051
3158 3156 3154 3152 3150 3147 3145 3143 3141 3140 3139 3138 3137 3136 3135 3135 3134 3134 3134 3134 3133 3133 3134 3134 3134 3134 3134 3134 3134 3134 3134 3134 3133 3133 3132 3132 3132 3131 3130 3130 3129 3128 3127 3126 3125 3124 3123 3122 3121 3120 3118 3117 3116 3114 3113 3112 3110 3109 3107 3106 3104 3102 3101 3099 3097 3095 3093 3090 3088 3086 3083 3081 3080 3079 3078 3077 3075 3072 3068 3065 3064 3062 3060 3057 3054 3051 3048
3159 3157 3155 3153 3151 3148 3146 3144 3142 3140 3139 3138 3138 3137 3136 3136 3135 3135 3135 3135 3134 3134 3135 3135 3135 3135 3135 3135 3135 3135 3134 3134 3134 3133 3133 3132 3132 3131 3130 3130 3129 3128 3127 3126 3125 3124 3123 3122 3120 3119 3118 3116 3115 3114 3113 3111 3110 3108 3107 3105 3103 3102 3100 3098 3096 3094 3092 3090 3089 3086 3083 3080 3079 3077 3076 3074 3072 3069 3064 3060 3059 3059 3056 3054 3051 3048 3044
3160 3158 3156 3154 3151 3149 3146 3144 3142 3141 3140 3139 3138 3138 3137 3136 3136 3136 3136 3136 3136 3135 3136 3136 3136 3136 3136 3136 3136 3136 3135 3135 3134 3134 3133 3133 3132 3131 3131 3130 3129 3128 3127 3126 3125 3124 3123 3121 3120 3119 3117 3116 3114 3113 3112 3110 3109 3108 3106 3105 3103 3101 3100 3098 3096 3094 3092 3090 3088 3085 3081 3078 3077 3076 3074 3072 3070 3068 3064 3058 3056 3056 3054 3050 3047 3044 3041
3161 3159 3157 3155 3152 3150 3147 3145 3143 3141 3141 3140 3139 3138 3138 3137 3137 3137 3136 3137 3137 3137 3137 3137 3137 3137 3137 3136 3136 3136 3136 3135 3135 3134 3134 3133 3132 3132 3131 3130 3129 3128 3127 3126 3125 3124 3123 3121 3120 3119 3118 3116 3115 3113 3111 3110 3108 3107 3106 3104 3103 3101 3099 3098 3096 3094 3092 3090 3087 3083 3080 3078 3076 3074 3073 3071 3068 3066 3063 3057 3052 3051 3050 3047 3044 3041 3037
3162 3160 3158 3155 3153 3150 3148 3146 3144 3142 3141 3141 3140 3139 3138 3138 3138 3138 3137 3138 3139 3138 3138 3138 3138 3138 3137 3137 3137 3137 3136 3136 3135 3135 3134 3134 3133 3132 3131 3130 3129 3128 3127 3126 3125 3124 3123 3121 3120 3119 3118 3116 3115 3113 3111 3110 3108 3106 3105 3103 3101 3100 3098 3096 3095 3093 3091 3090 3087 3084 3080 3077 3074 3073 3071 3069 3066 3063 3060 3055 3049 3047 3047 3044 3041 3038 3034
3163 3161 3159 3156 3154 3151 3149 3146 3145 3143 3142 3141 3140 3139 3139 3139 3139 3139 3139 3139 3140 3140 3139 3139 3139 3138 3138 3138 3138 3137 3137 3136 3136 3135 3135 3134 3133 3132 3132 3131 3130 3129 3127 3126 3125 3124 3122 3121 3120 3119 3117 3115 3114 3112 3110 3109 3107 3105 3103 3102 3100 3098 3097 3095 3094 3092 3090 3088 3086 3083 3080 3076 3073 3072 3069 3066 3064 3061 3058 3053 3048 3045 3044 3041 3037 3034 3031
3164 3162 3160 3157 3155 3152 3149 3147 3145 3144 3143 3142 3141 3140 3140 3140 3140 3140 3140 3140 3141 3141 3140 3140 3140 3139 3139 3139 3138 3138 3138 3137 3136 3136 3135 3134 3133 3133 3132 3131 3129 3128 3127 3126 3125 3123 3122 3121 3119 3118 3116 3114 3113 3111 3109 3108 3106 3104 3102 3101 3099 3097 3095 3094 3092 3090 3088 3086 3084 3081 3078 3074 3072 3070 3067 3064 3061 3059 3056 3052 3047 3044 3042 3038 3035 3032 3028
3165 3163 3161 3158 3155 3153 3150 3148 3146 3145 3144 3143 3142 3141 3142 3141 3141 3142 3141 3141 3141 3142 3141 3141 3140 3140 3140 3140 3139 3139 3138 3138 3137 3136 3135 3134 3134 3133 3132 3130 3129 3128 3127 3125 3124 3123 3121 3120 3119 3117 3115 3114 3112 3110 3108 3107 3105 3103 3101 3100 3097 3096 3094 3092 3090 3088 3086 3084 3082 3078 3075 3072 3070 3068 3065 3062 3060 3057 3054 3050 3046 3042 3039 3035 3032 3029 3025
3166 3164 3162 3159 3157 3154 3152 3149 3147 3146 3145 3144 3143 3142 3142 3143 3142 3143 3143 3142 3142 3143 3143 3142 3141 3141 3141 3140 3140 3139 3139 3138 3137 3136 3136 3135 3134 3133 3132 3130 3129 3128 3126 3125 3124 3123 3121 3119 3118 3116 3115 3113 3111 3109 3107 3105 3104 3102 3100 3098 3097 3095 3093 3091 3089 3087 3084 3082 3080 3076 3072 3070 3068 3066 3062 3059 3057 3054 3050 3047 3044 3040 3036 3032 3029 3026 3022
3167 3166 3163 3161 3159 3156 3153 3151 3149 3147 3146 3146 3144 3143 3143 3144 3143 3143 3144 3143 3143 3143 3143 3142 3142 3142 3141 3141 3140 3140 3139 3138 3138 3137 3136 3135 3134 3133 3132 3130 3129 3128 3126 3125 3123 3122 3120 3119 3117 3115 3113 3112 3110 3108 3106 3104 3102 3100 3099 3097 3095 3093 3092 3090 3088 3086 3084 3081 3079 3076 3072 3068 3066 3064 3061 3057 3053 3050 3046 3043 3040 3037 3033 3030 3026 3022 3019
3169 3167 3165 3163 3160 3157 3155 3152 3150 3148 3147 3146 3145 3144 3145 3145 3144 3144 3145 3144 3143 3144 3144 3143 3143 3143 3142 3141 3141 3140 3139 3139 3138 3137 3136 3135 3134 3132 3131 3130 3129 3127 3126 3124 3123 3121 3120 3118 3116 3114 3112 3110 3108 3106 3105 3103 3100 3098 3097 3095 3093 3092 3090 3088 3086 3084 3082 3079 3076 3074 3071 3067 3063 3061 3058 3055 3051 3047 3044 3040 3037 3034 3030 3027 3023 3020 3015
3170 3169 3167 3164 3162 3159 3156 3154 3152 3150 3149 3147 3146 3146 3146 3146 3146 3146 3146 3145 3144 3145 3145 3144 3144 3143 3143 3142 3141 3140 3140 3139 3138 3137 3136 3134 3133 3132 3130 3129 3128 3126 3125 3123 3122 3120 3118 3117 3115 3113 3111 3109 3107 3105 3103 3101 3099 3097 3095 3093 3091 3090 3088 3085 3083 3080 3078 3075 3072 3070 3068 3065 3061 3057 3054 3052 3048 3044 3041 3038 3034 3031 3027 3024 3020 3016 3012
3172 3170 3168 3166 3163 3161 3158 3156 3154 3152 3150 3149 3148 3148 3148 3147 3147 3147 3146 3146 3146 3146 3145 3145 3144 3144 3143 3142 3141 3140 3140 3139 3137 3136 3135 3134 3132 3131 3130 3128 3127 3125 3124 3122 3121 3119 3117 3115 3113 3111 3109 3108 3106 3103 3101 3099 3097 3095 3093 3091 3089 3087 3085 3083 3080 3077 3074 3071 3069 3067 3064 3061 3058 3055 3051 3048 3045 3042 3038 3035 3031 3028 3024 3020 3017 3013 3008
3173 3172 3170 3168 3165 3163 3160 3158 3156 3154 3153 3152 3151 3150 3149 3148 3148 3148 3147 3147 3147 3146 3146 3145 3145 3144 3143 3142 3141 3140 3139 3138 3137 3135 3134 3133 3131 3130 3129 3127 3126 3124 3122 3121 3119 3117 3115 3113 3111 3109 3107 3106 3104 3102 3100 3098 3095 3093 3091 3089 3086 3084 3082 3080 3077 3075 3071 3068 3066 3064 3061 3058 3055 3052 3049 3045 3041 3038 3034 3031 3028 3025 3021 3017 3014 3010 3006
3175 3173 3172 3169 3167 3165 3163 3160 3158 3157 3155 3154 3152 3151 3150 3150 3149 3149 3148 3148 3147 3147 3146 3145 3145 3144 3143 3142 3141 3140 3139 3137 3136 3134 3133 3132 3130 3129 3127 3125 3124 3122 3120 3119 3117 3115 3113 3111 3110 3108 3106 3104 3101 3099 3098 3096 3093 3091 3089 3087 3085 3082 3080 3077 3075 3071 3068 3065 3062 3059 3057 3054 3051 3048 3045 3042 3039 3035 3031 3028 3024 3021 3018 3014 3010 3006 3003
3176 3175 3173 3171 3169 3167 3165 3163 3161 3159 3157 3156 3154 3153 3152 3151 3151 3150 3149 3148 3148 3147 3146 3145 3145 3144 3143 3142 3141 3139 3138 3136 3135 3133 3132 3130 3129 3127 3125 3123 3122 3120 3118 3116 3115 3113 3111 3109 3107 3105 3104 3101 3099 3097 3095 3093 3091 3088 3086 3085 3083 3080 3078 3075 3072 3068 3066 3063 3060 3057 3054 3052 3048 3045 3042 3039 3036 3032 3029 3025 3022 3018 3015 3011 3007 3003 2999
3177 3176 3174 3172 3170 3168 3166 3165 3163 3161 3159 3158 3157 3155 3154 3154 3153 3151 3150 3149 3148 3147 3146 3145 3144 3143 3142 3141 3140 3138 3137 3135 3134 3132 3130 3128 3127 3125 3123 3121 3120 3118 3116 3114 3112 3111 3109 3107 3105 3103 3101 3099 3097 3094 3092 3090 3088 3085 3084 3083 3081 3078 3076 3073 3070 3067 3064 3062 3059 3055 3052 3050 3046 3043 3040 3036 3033 3030 3026 3023 3019 3015 3011 3008 3004 3000 2996
3178 3177 3175 3174 3172 3170 3168 3166 3165 3163 3161 3160 3159 3158 3157 3156 3154 3153 3152 3151 3149 3148 3147 3146 3144 3143 3142 3141 3139 3138 3136 3134 3132 3130 3128 3127 3125 3123 3121 3119 3117 3116 3114 3112 3110 3108 3106 3104 3102 3101 3099 3097 3094 3091 3089 3087 3084 3082 3082 3080 3078 3076 3073 3071 3068 3064 3061 3059 3057 3053 3050 3047 3044 3040 3037 3034 3030 3027 3023 3020 3016 3012 3009 3005 3001 2997 2993
3178 3177 3176 3175 3173 3171 3169 3168 3166 3165 3163 3162 3161 3160 3159 3157 3156 3154 3153 3152 3150 3149 3147 3146 3145 3143 3142 3140 3139 3137 3135 3133 3131 3129 3126 3124 3123 3121 3119 3117 3115 3113 3111 3109 3107 3105 3103 3101 3100 3098 3097 3095 3092 3088 3085 3083 3080 3079 3079 3077 3075 3073 3070 3068 3065 3062 3058 3056 3053 3050 3047 3044 3041 3037 3034 3031 3028 3024 3020 3016 3013 3009 3006 3002 2998 2995 2991
3179 3178 3177 3175 3174 3172 3170 3169 3168 3167 3165 3163 3162 3161 3160 3158 3157 3156 3154 3153 3151 3150 3148 3146 3145 3143 3141 3140 3138 3136 3134 3132 3130 3127 3125 3123 3121 3119 3117 3115 3113 3111 3109 3107 3105 3103 3101 3099 3097 3095 3094 3092 3089 3086 3083 3080 3077 3076 3076 3074 3072 3070 3067 3065 3062 3059 3056 3053 3050 3047 3044 3041 3038 3034 3031 3027 3024 3021 3017 3013 3010 3007 3003 2999 2995 2991 2988
3179 3178 3177 3176 3174 3173 3171 3170 3169 3168 3166 3165 3163 3162 3160 3159 3158 3156 3155 3153 3152 3150 3148 3147 3145 3143 3141 3140 3138 3135 3133 3131 3129 3126 3124 3121 3119 3117 3115 3113 3111 3109 3107 3105 3102 3100 3098 3096 3094 3092 3091 3089 3086 3083 3080 3078 3075 3074 3073 3071 3069 3067 3065 3062 3059 3056 3053 3050 3046 3043 3041 3038 3034 3031 3027 3024 3021 3017 3014 3010 3007 3003 3000 2996 2992 2988 2984
3179 3178 3177 3176 3175 3173 3172 3171 3170 3169 3167 3166 3164 3163 3161 3160 3159 3157 3155 3154 3152 3150 3149 3147 3145 3143 3142 3140 3137 3135 3133 3130 3128 3126 3123 3120 3118 3116 3114 3111 3109 3107 3105 3103 3100 3098 3096 3094 3092 3090 3088 3086 3084 3080 3077 3076 3074 3072 3070 3069 3067 3064 3062 3059 3056 3053 3050 3047 3044 3040 3037 3035 3031 3028 3025 3021 3018 3014 3011 3007 3003 3000 2997 2993 2989 2985 2981
3180 3179 3178 3176 3175 3174 3173 3172 3170 3169 3168 3166 3165 3163 3162 3161 3159 3157 3156 3154 3153 3151 3149 3147 3145 3144 3142 3140 3137 3135 3132 3130 3127 3124 3122 3120 3117 3114 3112 3110 3108 3105 3103 3101 3099 3096 3094 3092 3090 3087 3085 3084 3081 3077 3074 3073 3071 3070 3068 3066 3064 3061 3059 3056 3053 3050 3047 3044 3041 3038 3035 3032 3029 3025 3022 3018 3015 3011 3008 3004 3001 2997 2993 2990 2986 2982 2978
3180 3179 3178 3177 3176 3174 3173 3172 3171 3170 3168 3167 3165 3164 3162 3161 3159 3158 3156 3154 3153 3151 3149 3147 3145 3143 3141 3139 3136 3134 3132 3129 3126 3124 3121 3118 3116 3113 3111 3108 3106 3104 3101 3099 3097 3095 3092 3090 3088 3085 3083 3081 3079 3075 3072 3070 3069 3068 3066 3064 3061 3059 3056 3053 3050 3047 3044 3041 3038 3035 3032 3029 3026 3022 3019 3015 3012 3008 3005 3001 2998 2994 2990 2987 2983 2978 2974
3180 3179 3178 3177 3176 3174 3173 3172 3171 3170 3168 3167 3166 3164 3163 3161 3160 3158 3156 3155 3153 3151 3149 3147 3145 3143 3140 3138 3136 3134 3131 3129 3126 3123 3120 3117 3115 3112 3109 3107 3104 3102 3100 3098 3095 3093 3091 3089 3086 3084 3081 3079 3076 3074 3071 3068 3067 3066 3064 3061 3059 3056 3053 3050 3047 3044 3041 3038 3035 3032 3029 3026 3023 3019 3016 3013 3009 3005 3002 2998 2995 2991 2987 2984 2980 2975 2971
3180 3179 3178 3177 3176 3175 3173 3172 3171 3170 3169 3167 3166 3164 3163 3161 3160 3158 3156 3155 3153 3151 3149 3147 3145 3143 3140 3138 3135 3133 3130 3128 3125 3122 3119 3116 3114 3111 3108 3105 3103 3100 3098 3096 3094 3092 3089 3087 3085 3082 3080 3078 3075 3072 3070 3067 3065 3063 3061 3058 3056 3053 3050 3047 3044 3040 3037 3035 3032 3029 3026 3023 3020 3017 3013 3010 3006 3003 2999 2995 2992 2988 2984 2981 2977 2973 2969
3180 3179 3178 3177 3176 3175 3174 3172 3171 3170 3169 3167 3166 3164 3163 3161 3160 3158 3156 3154 3152 3151 3149 3147 3144 3142 3140 3138 3135 3132 3129 3126 3124 3121 3118 3115 3112 3110 3107 3104 3101 3099 3096 3094 3092 3090 3087 3085 3083 3080 3078 3076 3073 3070 3068 3066 3063 3061 3058 3056 3053 3050 3047 3044 3041 3037 3034 3031 3029 3026 3023 3020 3017 3014 3010 3007 3004 3000 2996 2993 2989 2985 2982 2978 2974 2970 2966
3181 3180 3179 3178 3176 3175 3174 3172 3171 3170 3169 3167 3166 3164 3163 3161 3159 3157 3156 3154 3152 3150 3148 3146 3144 3141 3139 3137 3134 3131 3128 3125 3123 3120 3117 3114 3111 3108 3106 3103 3100 3097 3094 3092 3090 3088 3085 3082 3080 3077 3075 3073 3070 3068 3065 3063 3060 3058 3055 3053 3050 3047 3044 3041 3038 3034 3031 3028 3025 3022 3019 3016 3014 3011 3007 3004 3001 2997 2994 2990 2986 2983 2979 2975 2971 2967 2963
3181 3180 3179 3178 3176 3175 3174 3173 3171 3170 3169 3167 3166 3164 3162 3161 3159 3157 3155 3153 3151 3149 3147 3145 3143 3141 3138 3135 3133 3130 3127 3124 3121 3118 3116 3114 3111 3108 3105 3102 3099 3096 3093 3090 3088 3086 3083 3080 3077 3075 3072 3070 3067 3065 3062 3060 3057 3055 3052 3049 3046 3043 3040 3037 3034 3031 3028 3025 3022 3020 3017 3013 3010 3007 3004 3001 2998 2994 2991 2987 2984 2980 2976 2972 2969 2965 2961
3181 3180 3179 3178 3177 3175 3174 3173 3171 3170 3169 3167 3165 3164 3162 3160 3158 3156 3154 3152 3150 3148 3146 3144 3142 3139 3137 3134 3131 3128 3126 3123 3120 3117 3114 3112 3110 3107 3104 3101 3098 3095 3092 3089 3087 3084 3081 3078 3075 3073 3070 3067 3064 3061 3059 3056 3054 3051 3048 3045 3042 3039 3036 3034 3031 3028 3025 3022 3019 3017 3014 3011 3008 3005 3002 2998 2995 2992 2988 2984 2981 2977 2973 2970 2966 2962 2958
3181 3180 3179 3178 3177 3175 3174 3172 3171 3170 3168 3167 3165 3163 3161 3160 3158 3156 3154 3151 3149 3147 3145 3143 3140 3138 3135 3132 3130 3127 3124 3121 3119 3116 3113 3110 3107 3104 3102 3100 3097 3094 3091 3088 3086 3083 3080 3076 3073 3070 3068 3065 3061 3058 3056 3053 3050 3047 3044 3041 3038 3036 3033 3030 3027 3024 3021 3019 3016 3013 3011 3008 3005 3002 2999 2996 2992 2989 2985 2982 2978 2974 2970 2967 2963 2959 2955
3181 3180 3179 3178 3176 3175 3174 3172 3171 3169 3168 3166 3165 3163 3161 3159 3158 3156 3153 3151 3149 3146 3144 3142 3139 3137 3134 3131 3129 3126 3123 3120 3117 3114 3111 3109 3106 3103 3100 3098 3095 3092 3090 3087 3084 3081 3078 3075 3071 3068 3065 3062 3059 3056 3053 3050 3047 3044 3040 3037 3035 3032 3029 3026 3024 3021 3018 3015 3013 3010 3007 3005 3001 2998 2996 2993 2989 2986 2983 2979 2975 2972 2968 2964 2960 2956 2952
3181 3180 3178 3177 3176 3174 3173 3171 3170 3169 3167 3166 3164 3162 3160 3159 3157 3155 3153 3151 3148 3145 3143 3140 3138 3135 3132 3130 3127 3124 3121 3119 3116 3113 3110 3108 3105 3102 3099 3096 3093 3091 3088 3085 3082 3078 3076 3073 3069 3065 3062 3059 3056 3053 3050 3047 3044 3040 3037 3034 3031 3028 3026 3023 3020 3018 3015 3012 3010 3007 3004 3001 2998 2995 2992 2989 2986 2983 2980 2976 2972 2969 2965 2961 2957 2953 2950
3180 3179 3178 3176 3175 3174 3172 3171 3169 3168 3166 3165 3163 3162 3160 3158 3156 3154 3151 3149 3147 3144 3142 3139 3136 3134 3131 3128 3125 3122 3120 3117 3114 3112 3109 3106 3104 3101 3098 3095 3092 3088 3085 3082 3079 3076 3073 3070 3066 3063 3059 3057 3054 3050 3047 3044 3041 3037 3034 3031 3028 3025 3022 3020 3017 3014 3011 3009 3006 3004 3001 2998 2995 2992 2989 2986 2983 2980 2977 2973 2970 2966 2962 2958 2954 2951 2947
3179 3178 3176 3175 3174 3173 3171 3170 3168 3167 3165 3164 3162 3161 3159 3156 3154 3152 3150 3148 3145 3143 3140 3137 3135 3132 3129 3127 3124 3121 3118 3115 3113 3110 3108 3105 3102 3099 3096 3093 3090 3087 3083 3080 3077 3074 3070 3067 3064 3061 3057 3054 3051 3047 3044 3041 3037 3034 3030 3027 3024 3021 3019 3016 3014 3011 3008 3006 3003 3000 2998 2995 2992 2989 2986 2983 2980 2977 2974 2970 2967 2963 2959 2955 2952 2948 2944
3178 3176 3175 3174 3172 3171 3170 3169 3168 3166 3164 3163 3161 3159 3157 3155 3153 3150 3148 3146 3143 3141 3138 3136 3133 3130 3128 3125 3122 3119 3117 3114 3111 3108 3106 3103 3100 3097 3094 3091 3088 3085 3082 3078 3075 3072 3069 3065 3062 3058 3055 3051 3048 3044 3041 3037 3034 3030 3027 3024 3021 3018 3015 3013 3010 3008 3005 3002 3000 2997 2994 2992 2989 2986 2983 2980 2977 2974 2971 2967 2964 2960 2956 2952 2949 2945 2941
3176 3175 3174 3172 3171 3170 3169 3167 3166 3165 3163 3161 3159 3157 3155 3153 3151 3149 3146 3144 3141 3139 3136 3134 3131 3128 3125 3123 3120 3117 3115 3112 3109 3106 3104 3101 3098 3095 3092 3089 3086 3084 3081 3077 3073 3069 3066 3063 3059 3055 3052 3048 3044 3041 3037 3034 3031 3027 3024 3021 3017 3014 3012 3009 3007 3004 3002 2999 2997 2994 2991 2988 2986 2983 2980 2978 2974 2971 2968 2964 2961 2957 2953 2950 2946 2942 2938
3175 3174 3173 3171 3170 3168 3167 3165 3164 3163 3161 3159 3157 3155 3153 3151 3149 3147 3144 3142 3139 3137 3134 3132 3129 3126 3123 3120 3117 3114 3112 3110 3107 3104 3102 3100 3097 3093 3090 3087 3084 3081 3078 3075 3071 3067 3064 3060 3056 3052 3049 3045 3042 3038 3034 3031 3027 3024 3021 3017 3014 3011 3008 3006 3004 3001 2998 2996 2993 2991 2988 2985 2982 2980 2977 2974 2972 2969 2965 2961 2958 2955 2951 2947 2943 2939 2935
3174 3173 3171 3170 3168 3167 3165 3163 3161 3160 3159 3157 3155 3153 3151 3149 3147 3144 3142 3139 3137 3134 3132 3129 3126 3123 3120 3117 3114 3111 3109 3107 3105 3102 3099 3097 3095 3092 3088 3085 3082 3079 3076 3073 3069 3065 3061 3058 3054 3049 3046 3042 3039 3035 3031 3028 3024 3021 3017 3014 3011 3008 3005 3003 3000 2998 2995 2993 2990 2988 2985 2982 2979 2976 2974 2971 2969 2966 2963 2959 2955 2952 2948 2944 2940 2937 2933
3172 3171 3170 3169 3167 3165 3163 3161 3159 3158 3156 3154 3152 3150 3148 3146 3144 3142 3139 3137 3135 3132 3129 3126 3124 3121 3118 3115 3112 3109 3107 3104 3102 3099 3097 3095 3092 3089 3086 3083 3080 3076 3073 3070 3067 3063 3059 3055 3051 3046 3042 3039 3035 3032 3028 3025 3021 3018 3014 3011 3008 3005 3002 2999 2997 2994 2992 2989 2987 2984 2982 2979 2976 2973 2971 2968 2965 2963 2960 2956 2952 2949 2945 2942 2938 2934 2931
3170 3169 3168 3167 3165 3163 3161 3159 3158 3156 3154 3152 3150 3148 3146 3143 3141 3139 3137 3134 3132 3129 3127 3124 3121 3119 3116 3113 3110 3107 3104 3101 3098 3096 3094 3092 3089 3086 3083 3080 3077 3074 3070 3066 3063 3060 3057 3053 3048 3044 3039 3035 3032 3028 3025 3021 3018 3015 3011 3007 3004 3002 2999 2996 2994 2991 2989 2986 2984 2981 2979 2976 2973 2970 2968 2965 2962 2960 2957 2954 2950 2946 2942 2939 2935 2931 2928